Location: Peebles
(55.6412°N, 3.1714°W)
Time: 15:27:13
(UTC+01:00)

ZHUHAI-1 OVS-02 - Pass Details

Date: 04 July 2022
Orbit: 492 x 507 km, 97.2° (Epoch: 17 August)

Event Time Altitude Azimuth Distance (km) Brightness Sun altitude
Rises 23:06:04 0° 207° (SSW) 2,575 ? -6.7°
Reaches altitude 10° 23:08:41 10° 228° (SW) 1,702 ? -6.9°
Maximum altitude 23:11:10 17° 271° (W) 1,322 ? -7.1°
Drops below altitude 10° 23:13:41 10° 314° (NW) 1,719 ? -7.3°
Sets 23:16:22 0° 335° (NNW) 2,614 ? -7.4°
